Weather in Saalbach-Hinterglemm

Austria     47°23′23″N   12°38′22″E
temp.,
°C
wind,
m/s
gust,
m/s
humid.,
%
clouds,
%
prec.,
mm/h
press.,
hPa
HPBL,
m
28 september, tue
tue2823:00+10sw1189100 0.2 102311
02:00+11w1184100 0.4 102310
05:00+9wsw118731 0.0 102310
08:00+9sw119028 0.0 102411
11:00+14nnw117478 0.0 1023678
14:00+14nne227299 0.1 1021701
17:00+15nne227272 0.0 1020689
20:00+10ene1199100 0.0 102035
29 september, wed
wed2923:00+9se229773 0.0 102022
02:00+8sse2293100 0.0 101936
05:00+8nw1195100 0.0 101922
08:00+8wnw2399100 6.6 1022261
11:00+8ssw2397100 4.1 1023174
14:00+12w2271100 4.5 1021897
17:00+10nw2279100 0.4 1022322
20:00+6sse009460 0.5 102510
30 september, thu
thu3023:00+7nne1195100 0.4 102549
02:00+7nnw2399100 1.4 1026229
05:00+5nne2399100 2.2 1029297
08:00+3nne1299100 3.0 1031398
11:00+4ene1197100 0.2 1031437
14:00+6ese019094 0.3 1030492
17:00+8ese117888 0.0 1027690
20:00+4se1193100 0.0 102912
1 october, fri
fri123:00+3sse2296100 0.0 102927
02:00+3sse2295100 0.0 102931
05:00+3sse2293100 0.0 102726
08:00+4se228852 0.0 102742
11:00+13sse115252 0.0 1023464
14:00+17ese123763 0.0 10201035
17:00+16ne22585 0.0 1018150
20:00+8sse228325 0.0 102117
2 october, sat
sat223:00+6sse338212 0.0 102142
02:00+5sse228497 0.0 102134
05:00+5sse2283100 0.0 102022
08:00+6sse2177100 0.0 102024
11:00+13sse0158100 0.0 1018553
14:00+13n2163100 0.1 1017917
17:00+13nne22677 0.1 1015448
20:00+7ese219150 0.1 101612